{"data":{"norad_id":60330,"intl_designator":"2024-136B","name":"STARLINK-32153","alt_names":[],"object_type":"PAYLOAD","status":"ACTIVE","operator":null,"country":"US","launch_date":"2024-08-02","launch_site_code":"AFETR","launch_vehicle":null,"mission":null,"orbit_class":"UNKNOWN","rcs_meters":null,"size_class":null,"mass_kg":null,"dimensions":null,"purposes":["comms"],"wikipedia_slug":null,"has_3d_model":false,"image_url":null,"decayed_at":null,"tle_current":{"epoch":"2026-09-21T08:46:39.322560Z","epoch_age_seconds":110800,"freshness":"FRESH","line1":"1 60330U 24136B   26264.36573290 -.00000438  00000+0 -18423-5 0  9992","line2":"2 60330  53.1573 245.3436 0001013  82.8379 277.2739 15.34377265119648","mean_motion":15.34377265,"eccentricity":0.0001013,"inclination_deg":53.1573,"raan_deg":245.3436,"arg_perigee_deg":82.8379,"mean_anomaly_deg":277.2739,"bstar":-1.8423e-6,"rev_number":11964,"period_min":93.849148631644,"perigee_km":462.07783029107,"apogee_km":463.46379821424,"semimajor_km":6840.9078142527,"source":"CELESTRAK","updated_at":"2026-09-22T09:00:49.218900Z"}}}